User: anonymous   Login
Location: Brotuna
(46.2000°N, 22.6000°E)
Time: 11:26:15
(UTC+00:00)
Language:

Cosmos 2058 Rocket - Orbit

View from above orbital plane
View from above orbital plane
View from above satellite
View from above satellite

Ground track
Ground track

The orbit data is extracted from the following two-line orbital elements,

1 20466U 90010B   20188.86239020 +.00000057 +00000-0 +43711-5 0  9990
2 20466 082.5027 048.6143 0018990 274.2413 085.6630 14.81387352621605
Epoch (UTC): 06 July 2020 20:41:50
Eccentricity: 0.0018990
inclination: 82.5027°
perigee height: 611 km
apogee height: 638 km
right ascension of ascending node: 48.6143°
argument of perigee: 274.2413°
revolutions per day: 14.81387352
mean anomaly at epoch: 85.6630°
orbit number at epoch: 62160

The dashed part of the orbit path shows where the satellite is in the earth's shadow,  

DLR